DW3795 Weather Reports


Display with metric or nautical units.
time (UTC)temp
F
wind
direction
speed
MPH
gust
MPH
rain 1hr
in
rain 24hr
in
rain mn
in
humidity
%
barometer
mb
20260506084537 63 144 5.0 10.0 0.00 0.00 0.00 75 1012.4
20260506083037 63 208 5.0 11.0 0.00 0.00 0.00 75 1012.5
20260506081536 63 242 3.0 11.0 0.00 0.00 0.00 75 1012.6
20260506073031 64 220 2.0 14.0 0.00 0.00 0.00 75 1012.4
20260506071529 64 242 4.0 11.0 0.00 0.00 0.00 75 1012.5
20260506061518 65 110 4.0 11.0 0.00 0.00 0.00 73 1012.7
20260506044509 67 202 7.0 14.0 0.00 0.00 0.00 70 1013.5
20260506043004 67 212 3.0 8.0 0.00 0.00 0.00 69 1013.3
20260506041502 67 127 1.0 9.0 0.00 0.00 0.00 68 1013.3
20260506040059 67 215 3.0 9.0 0.00 0.00 0.00 66 1013.2
20260506034600 67 212 5.0 15.0 0.00 0.00 0.00 65 1013.1
20260506033111 66 133 2.0 6.0 0.00 0.00 0.00 63 1013.1
20260506031606 66 166 0.0 5.0 0.00 0.00 0.00 62 1013.2
20260506030056 66 219 2.0 6.0 0.00 0.00 0.00 62 1013.3
20260506024556 66 194 2.0 7.0 0.00 0.00 0.00 62 1013.3
20260506023054 66 225 2.0 6.0 0.00 0.00 0.00 63 1013.2
20260506021557 66 238 2.0 5.0 0.00 0.00 0.00 63 1013.2
20260506020054 66 231 0.0 3.0 0.00 0.00 0.00 62 1013.2
20260506014557 68 235 0.0 2.0 0.00 0.00 0.00 61 1013.1
20260506013053 69 237 0.0 2.0 0.00 0.00 0.00 59 1012.9
20260506011552 70 236 0.0 2.0 0.00 0.00 0.00 56 1012.9
20260506010051 71 239 0.0 1.0 0.00 0.00 0.00 55 1012.7
20260506004554 72 239 1.0 3.0 0.00 0.00 0.00 51 1012.6
20260506003049 74 264 0.0 5.0 0.00 0.00 0.00 50 1012.5
20260506001608 75 261 1.0 4.0 0.00 0.00 0.00 49 1012.3
20260506000049 76 220 1.0 6.0 0.00 0.00 0.00 47 1012.2
20260505234550 76 231 3.0 6.0 0.00 0.00 0.00 45 1012.1
20260505233053 77 174 2.0 9.0 0.00 0.00 0.00 44 1012.0
20260505231551 78 172 2.0 8.0 0.00 0.00 0.00 42 1011.9
20260505230046 78 206 2.0 10.0 0.00 0.00 0.00 41 1012.0
20260505224547 78 170 2.0 11.0 0.00 0.00 0.00 40 1012.1
20260505223053 79 184 6.0 15.0 0.00 0.00 0.00 39 1012.2
20260505221549 80 146 7.0 11.0 0.00 0.00 0.00 39 1012.0
20260505220043 80 162 3.0 12.0 0.00 0.00 0.00 41 1012.2
20260505214556 80 221 8.0 18.0 0.00 0.00 0.00 40 1012.4
20260505213052 81 191 5.0 16.0 0.00 0.00 0.00 38 1012.2
20260505211539 82 242 4.0 10.0 0.00 0.00 0.00 39 1012.2
20260505210037 81 217 5.0 14.0 0.00 0.00 0.00 40 1012.3
20260505204538 81 165 7.0 16.0 0.00 0.00 0.00 38 1012.6
20260505203043 82 208 5.0 10.0 0.00 0.00 0.00 37 1012.6
20260505201547 83 167 6.0 18.0 0.00 0.00 0.00 35 1012.6
20260505200033 83 193 5.0 16.0 0.00 0.00 0.00 34 1013.0
20260505194530 83 200 5.0 18.0 0.00 0.00 0.00 34 1013.0
20260505193042 82 161 5.0 12.0 0.00 0.00 0.00 36 1013.2
20260505191530 82 149 5.0 14.0 0.00 0.00 0.00 36 1013.3
20260505190032 84 150 4.0 14.0 0.00 0.00 0.00 34 1013.5
20260505184527 82 189 4.0 13.0 0.00 0.00 0.00 36 1013.7
20260505183042 82 191 6.0 15.0 0.00 0.00 0.00 35 1014.0
20260505181522 83 239 6.0 16.0 0.00 0.00 0.00 34 1014.1
20260505180032 82 180 5.0 14.0 0.00 0.00 0.00 36 1014.3
20260505174529 83 260 4.0 12.0 0.00 0.00 0.00 37 1014.4
20260505173028 83 170 6.0 13.0 0.00 0.00 0.00 38 1014.4
20260505171526 81 132 5.0 15.0 0.00 0.00 0.00 38 1014.6
20260505170017 81 204 7.0 15.0 0.00 0.00 0.00 38 1014.8
20260505164529 81 139 5.0 10.0 0.00 0.00 0.00 39 1015.0
20260505163010 80 245 5.0 14.0 0.00 0.00 0.00 42 1015.1
20260505161506 79 233 6.0 15.0 0.00 0.00 0.00 43 1015.2
20260505153108 76 159 3.0 10.0 0.00 0.00 0.00 50 1015.6
20260505151553 75 271 3.0 11.0 0.00 0.00 0.00 52 1016.0
20260505150109 74 223 2.0 10.0 0.00 0.00 0.00 53 1016.0
20260505124516 60 251 2.0 7.0 0.00 0.00 0.00 76 1016.0
20260505123011 59 212 1.0 8.0 0.00 0.00 0.00 79 1016.2
20260505121512 57 248 2.0 5.0 0.00 0.00 0.00 82 1016.2
20260505120009 55 196 2.0 5.0 0.00 0.00 0.00 85 1015.9
20260505114507 54 10 0.0 3.0 0.00 0.00 0.00 85 1015.7
20260505113007 53 185 0.0 2.0 0.00 0.00 0.00 84 1015.6
20260505111505 53 183 0.0 1.0 0.00 0.00 0.00 84 1015.4
20260505101552 55 230 0.0 2.0 0.00 0.00 0.00 79 1015.0
20260505100056 55 221 0.0 3.0 0.00 0.00 0.00 78 1015.0
20260505094550 56 194 1.0 5.0 0.00 0.00 0.00 77 1014.9
20260505093049 56 177 1.0 4.0 0.00 0.00 0.00 76 1014.8
20260505091549 57 201 0.0 8.0 0.00 0.00 0.00 76 1014.7
20260505090052 56 236 2.0 4.0 0.00 0.00 0.00 75 1014.6